STARLINK-38037, 69750

Orbit data source: Space-Track

STARLINK-38037, 69750 is a payload satellite owned by SpaceX/Seattle (US) in SSO that was launched on Thu, 02 Jul 2026 UTC via an FALCON 9 launch vehicle from the Air Force Western Test Range (AFWTR). Payload-class satellites include a variety of spacecraft equipped with specific instruments for various scientific and technological missions. These include communications satellites like Starlink; space stations such as the ISS; scientific satellites like the Hubble; Earth observation satellites from companies like Planet Labs, Umbra, and HawkEye 360; GPS; miniature CubeSats for education and research; and military/defense satellites.

Loading next visibility...
Identifier
69750, 2026-150M
Orbit
SSO
Country
Flag of USUS
Related business
Manufacturer
SpaceX/Seattle
Mission
Operational spacecraft
Bus & Motor
STARLINK V2MO, Unknown motor
Mass
575 kg wet, ~530 kg dry
Launch date (UTC)
2026-07-02 (3 weeks ago)
Launch vehicle
FALCON 9
Launch site
Air Force Western Test Range (AFWTR)
Object type
Payload
Rocket body
Debris
Shape & HBR
Unknown shape, 17.7 m
Radar Cross Section
Large (>1 m²)

Expand to show TLE details & history
Last TLE update: 15 hours ago

TLE from 15 hours ago
0 STARLINK-38037
1 69750U 26150M   26202.58335648 -.00036778  00000-0 -24663-3 0  9992
2 69750  97.2849  41.3301 0001123  83.4067 190.6346 15.75203450  4325
Epoch: 2026-07-21T14:00Z
TLE epoch observation values (Epoch: 2026-07-21T14:00:01.999Z)
Latitude
-81.72776°
Longitude
-47.06261°
Altitude
373.106 km
Speed
7.684 km/s
True Right ascension
06h 49m 11s
True Declination
-81° 40' 33"
Sunlit
Object was in daylight at epoch
Visualization orbit readout
Latitude
Unknown
Longitude
Unknown
Altitude
Unknown
Speed
Unknown
Apparent Right ascension
Unknown
Apparent Declination
Unknown
Sunlit
N/A
Visualization observer readout
Local Sidereal Time
17:50:44
Azimuth
Unknown
Elevation
Unknown
Doppler factor
Unknown
Orbital elements
Apogee altitude
341.694 km
Perigee altitude
340.185 km
Semi-major axis
6,719.077 km
Eccentricity
0.00011
Inclination
97.2849°
RAAN
41.3301°
Arg. of periapsis
83.4067°
True anomaly
190.63223°
Mean anomaly
190.6346°
Eccentric anomaly
190.63341°
Mean motion
3.94075 °/min
Orbital period
91.35 mins
BSTAR
-0.00024663
Loading maneuver chart data...
Computing Atmospheric mass density...
Loading historical data...
Loading historical data...
Loading historical data...
Loading historical data...
Loading historical data...
Loading historical data...
Loading historical data...

Documentation

Showing up to 5 results
|